contact:dominique.lefevre@mio.osupytheas.fr, maurice.libes@osupytheas.fr, didier.mallarino@osupytheas.fr
Project:EMSO http://www.emso-fr.org/EMSO-France
Depth: 2436.0 m
Title:EMSO Ligure Ouest : Data MII capteur MICROCAT
DateTime_Computer,Latitude,Longitude,Temperature,Conductivity,Pressure,DateTime_Instrument
DateTime_Computer,Latitude,Longitude,degC,S m-1,dbar,DateTime_Instrument
2021-10-29T00:02:03Z,42.805,6.029,13.2993,4.60023,2470.437,2021-10-29T02:03:27Z
2021-10-29T00:05:06Z,42.805,6.029,13.2996,4.60028,2470.437,2021-10-29T02:06:31Z
2021-10-29T00:08:09Z,42.805,6.029,13.2993,4.60027,2470.413,2021-10-29T02:09:34Z
2021-10-29T00:11:12Z,42.805,6.029,13.2996,4.60028,2470.413,2021-10-29T02:12:37Z
2021-10-29T00:14:15Z,42.805,6.029,13.3000,4.60033,2470.437,2021-10-29T02:15:40Z
2021-10-29T00:17:18Z,42.805,6.029,13.2997,4.60027,2470.413,2021-10-29T02:18:43Z
2021-10-29T00:20:22Z,42.805,6.029,13.2999,4.60038,2470.427,2021-10-29T02:21:46Z
2021-10-29T00:23:25Z,42.805,6.029,13.2993,4.60039,2470.427,2021-10-29T02:24:49Z
2021-10-29T00:26:28Z,42.805,6.029,13.2996,4.60021,2470.45,2021-10-29T02:27:52Z
2021-10-29T00:29:31Z,42.805,6.029,13.2998,4.60024,2470.437,2021-10-29T02:30:55Z
2021-10-29T00:32:34Z,42.805,6.029,13.2996,4.60042,2470.427,2021-10-29T02:33:59Z
2021-10-29T00:35:37Z,42.805,6.029,13.2999,4.60026,2470.474,2021-10-29T02:37:02Z
2021-10-29T00:38:40Z,42.805,6.029,13.3000,4.60033,2470.413,2021-10-29T02:40:05Z
2021-10-29T00:41:43Z,42.805,6.029,13.2996,4.60032,2470.437,2021-10-29T02:43:08Z
2021-10-29T00:44:47Z,42.805,6.029,13.2999,4.60028,2470.427,2021-10-29T02:46:11Z
2021-10-29T00:47:50Z,42.805,6.029,13.3004,4.60026,2470.474,2021-10-29T02:49:14Z
2021-10-29T00:50:53Z,42.805,6.029,13.2998,4.60022,2470.427,2021-10-29T02:52:17Z
2021-10-29T00:53:56Z,42.805,6.029,13.2996,4.60027,2470.437,2021-10-29T02:55:20Z
2021-10-29T00:56:59Z,42.805,6.029,13.2999,4.60035,2470.413,2021-10-29T02:58:24Z
2021-10-29T01:00:02Z,42.805,6.029,13.2997,4.60031,2470.413,2021-10-29T03:01:27Z
2021-10-29T01:03:05Z,42.805,6.029,13.2995,4.60025,2470.45,2021-10-29T03:04:30Z
2021-10-29T01:06:08Z,42.805,6.029,13.2998,4.60023,2470.437,2021-10-29T03:07:33Z
2021-10-29T01:09:12Z,42.805,6.029,13.3010,4.60029,2470.437,2021-10-29T03:10:36Z
2021-10-29T01:12:15Z,42.805,6.029,13.3006,4.60046,2470.437,2021-10-29T03:13:39Z
2021-10-29T01:15:18Z,42.805,6.029,13.3001,4.60049,2470.413,2021-10-29T03:16:42Z
2021-10-29T01:18:21Z,42.805,6.029,13.2998,4.60042,2470.437,2021-10-29T03:19:45Z
2021-10-29T01:21:24Z,42.805,6.029,13.2999,4.60024,2470.45,2021-10-29T03:22:49Z
2021-10-29T01:24:27Z,42.805,6.029,13.2997,4.60031,2470.45,2021-10-29T03:25:52Z
2021-10-29T01:27:30Z,42.805,6.029,13.2998,4.60037,2470.437,2021-10-29T03:28:55Z
2021-10-29T01:30:33Z,42.805,6.029,13.2998,4.60026,2470.413,2021-10-29T03:31:58Z
2021-10-29T01:33:37Z,42.805,6.029,13.3003,4.60016,2470.437,2021-10-29T03:35:01Z
2021-10-29T01:36:40Z,42.805,6.029,13.3003,4.60026,2470.413,2021-10-29T03:38:04Z
2021-10-29T01:39:43Z,42.805,6.029,13.3002,4.60032,2470.413,2021-10-29T03:41:07Z
2021-10-29T01:42:46Z,42.805,6.029,13.3004,4.60059,2470.413,2021-10-29T03:44:10Z
2021-10-29T01:45:49Z,42.805,6.029,13.2998,4.60033,2470.474,2021-10-29T03:47:14Z
2021-10-29T01:48:52Z,42.805,6.029,13.3000,4.60031,2470.413,2021-10-29T03:50:17Z
2021-10-29T01:51:55Z,42.805,6.029,13.2997,4.60025,2470.437,2021-10-29T03:53:20Z
2021-10-29T01:54:58Z,42.805,6.029,13.3000,4.60037,2470.46,2021-10-29T03:56:23Z
2021-10-29T01:58:02Z,42.805,6.029,13.2998,4.60021,2470.413,2021-10-29T03:59:26Z
2021-10-29T02:01:05Z,42.805,6.029,13.2998,4.60024,2470.437,2021-10-29T04:02:29Z
2021-10-29T02:04:08Z,42.805,6.029,13.2998,4.60029,2470.39,2021-10-29T04:05:32Z
2021-10-29T02:07:11Z,42.805,6.029,13.2996,4.60022,2470.427,2021-10-29T04:08:35Z
2021-10-29T02:10:14Z,42.805,6.029,13.2996,4.60025,2470.507,2021-10-29T04:11:39Z
2021-10-29T02:13:17Z,42.805,6.029,13.2998,4.60026,2470.46,2021-10-29T04:14:42Z
2021-10-29T02:16:20Z,42.805,6.029,13.3001,4.60024,2470.437,2021-10-29T04:17:45Z
2021-10-29T02:19:23Z,42.805,6.029,13.3004,4.60037,2470.46,2021-10-29T04:20:48Z
2021-10-29T02:22:27Z,42.805,6.029,13.2997,4.60025,2470.413,2021-10-29T04:23:51Z
2021-10-29T02:25:30Z,42.805,6.029,13.2996,4.60029,2470.413,2021-10-29T04:26:54Z
2021-10-29T02:28:33Z,42.805,6.029,13.3000,4.60023,2470.437,2021-10-29T04:29:57Z
2021-10-29T02:31:36Z,42.805,6.029,13.3000,4.60036,2470.413,2021-10-29T04:33:00Z
2021-10-29T02:34:39Z,42.805,6.029,13.2995,4.60024,2470.45,2021-10-29T04:36:04Z
2021-10-29T02:37:42Z,42.805,6.029,13.2996,4.60027,2470.45,2021-10-29T04:39:07Z
2021-10-29T02:40:45Z,42.805,6.029,13.3000,4.60028,2470.437,2021-10-29T04:42:10Z
2021-10-29T02:43:48Z,42.805,6.029,13.3002,4.60039,2470.413,2021-10-29T04:45:13Z
2021-10-29T02:46:51Z,42.805,6.029,13.2995,4.60049,2470.427,2021-10-29T04:48:16Z
2021-10-29T02:49:55Z,42.805,6.029,13.2998,4.60026,2470.413,2021-10-29T04:51:19Z
2021-10-29T02:52:58Z,42.805,6.029,13.3004,4.60052,2470.404,2021-10-29T04:54:22Z
2021-10-29T02:56:01Z,42.805,6.029,13.3002,4.60036,2470.404,2021-10-29T04:57:25Z
2021-10-29T02:59:04Z,42.805,6.029,13.2996,4.60058,2470.39,2021-10-29T05:00:29Z
2021-10-29T03:02:07Z,42.805,6.029,13.3006,4.60060,2470.39,2021-10-29T05:03:32Z
2021-10-29T03:05:10Z,42.805,6.029,13.3011,4.60025,2470.38,2021-10-29T05:06:35Z
2021-10-29T03:08:13Z,42.805,6.029,13.3007,4.60049,2470.404,2021-10-29T05:09:38Z
2021-10-29T03:11:16Z,42.805,6.029,13.2998,4.60049,2470.38,2021-10-29T05:12:41Z
2021-10-29T03:14:20Z,42.805,6.029,13.2995,4.60026,2470.366,2021-10-29T05:15:44Z
2021-10-29T03:17:23Z,42.805,6.029,13.2998,4.60031,2470.39,2021-10-29T05:18:47Z
2021-10-29T03:20:26Z,42.805,6.029,13.2994,4.60027,2470.343,2021-10-29T05:21:50Z
2021-10-29T03:23:29Z,42.805,6.029,13.3006,4.60041,2470.404,2021-10-29T05:24:54Z
2021-10-29T03:26:32Z,42.805,6.029,13.2997,4.60025,2470.366,2021-10-29T05:27:57Z
2021-10-29T03:29:35Z,42.805,6.029,13.2994,4.60025,2470.413,2021-10-29T05:31:00Z
2021-10-29T03:32:38Z,42.805,6.029,13.3000,4.60022,2470.366,2021-10-29T05:34:03Z
2021-10-29T03:35:41Z,42.805,6.029,13.2994,4.60028,2470.376,2021-10-29T05:37:06Z
2021-10-29T03:38:45Z,42.805,6.029,13.3002,4.60033,2470.366,2021-10-29T05:40:09Z
2021-10-29T03:41:48Z,42.805,6.029,13.3001,4.60039,2470.427,2021-10-29T05:43:12Z
2021-10-29T03:44:51Z,42.805,6.029,13.2998,4.60037,2470.366,2021-10-29T05:46:15Z
2021-10-29T03:47:54Z,42.805,6.029,13.3004,4.60044,2470.39,2021-10-29T05:49:19Z
2021-10-29T03:50:57Z,42.805,6.029,13.2996,4.60023,2470.404,2021-10-29T05:52:22Z
2021-10-29T03:54:00Z,42.805,6.029,13.3004,4.60052,2470.404,2021-10-29T05:55:25Z
2021-10-29T03:57:03Z,42.805,6.029,13.2998,4.60031,2470.38,2021-10-29T05:58:28Z
2021-10-29T04:00:06Z,42.805,6.029,13.3000,4.60029,2470.366,2021-10-29T06:01:31Z
2021-10-29T04:03:10Z,42.805,6.029,13.3010,4.60059,2470.39,2021-10-29T06:04:34Z
2021-10-29T04:06:13Z,42.805,6.029,13.3009,4.60049,2470.366,2021-10-29T06:07:37Z
2021-10-29T04:09:16Z,42.805,6.029,13.3005,4.60049,2470.404,2021-10-29T06:10:40Z
2021-10-29T04:12:19Z,42.805,6.029,13.3001,4.60039,2470.39,2021-10-29T06:13:44Z
2021-10-29T04:15:22Z,42.805,6.029,13.3003,4.60049,2470.413,2021-10-29T06:16:47Z
2021-10-29T04:18:25Z,42.805,6.029,13.2999,4.60025,2470.38,2021-10-29T06:19:50Z
2021-10-29T04:21:28Z,42.805,6.029,13.2997,4.60035,2470.366,2021-10-29T06:22:53Z
2021-10-29T04:24:31Z,42.805,6.029,13.2996,4.60026,2470.353,2021-10-29T06:25:56Z
2021-10-29T04:27:35Z,42.805,6.029,13.2997,4.60028,2470.343,2021-10-29T06:28:59Z
2021-10-29T04:30:38Z,42.805,6.029,13.3004,4.60029,2470.38,2021-10-29T06:32:02Z
2021-10-29T04:33:41Z,42.805,6.029,13.2992,4.60025,2470.39,2021-10-29T06:35:05Z
2021-10-29T04:36:44Z,42.805,6.029,13.2993,4.60031,2470.38,2021-10-29T06:38:08Z
2021-10-29T04:39:47Z,42.805,6.029,13.2996,4.60033,2470.366,2021-10-29T06:41:12Z
2021-10-29T04:42:50Z,42.805,6.029,13.2997,4.60028,2470.39,2021-10-29T06:44:15Z
2021-10-29T04:45:53Z,42.805,6.029,13.2995,4.60031,2470.357,2021-10-29T06:47:18Z
2021-10-29T04:48:56Z,42.805,6.029,13.2998,4.60062,2470.357,2021-10-29T06:50:21Z
2021-10-29T04:52:00Z,42.805,6.029,13.3000,4.60057,2470.404,2021-10-29T06:53:24Z
2021-10-29T04:55:03Z,42.805,6.029,13.2998,4.60029,2470.413,2021-10-29T06:56:27Z
2021-10-29T04:58:06Z,42.805,6.029,13.3001,4.60038,2470.413,2021-10-29T06:59:30Z
2021-10-29T05:01:09Z,42.805,6.029,13.3019,4.60036,2470.366,2021-10-29T07:02:34Z
2021-10-29T05:04:12Z,42.805,6.029,13.2999,4.60034,2470.38,2021-10-29T07:05:37Z
2021-10-29T05:07:15Z,42.805,6.029,13.3000,4.60043,2470.39,2021-10-29T07:08:40Z
2021-10-29T05:10:18Z,42.805,6.029,13.2997,4.60036,2470.366,2021-10-29T07:11:43Z
2021-10-29T05:13:21Z,42.805,6.029,13.2996,4.60035,2470.357,2021-10-29T07:14:46Z
2021-10-29T05:16:25Z,42.805,6.029,13.2993,4.60031,2470.366,2021-10-29T07:17:49Z
2021-10-29T05:19:28Z,42.805,6.029,13.2999,4.60031,2470.39,2021-10-29T07:20:52Z
2021-10-29T05:22:31Z,42.805,6.029,13.3003,4.60026,2470.38,2021-10-29T07:23:55Z
2021-10-29T05:25:34Z,42.805,6.029,13.2999,4.60028,2470.39,2021-10-29T07:26:58Z
2021-10-29T05:28:37Z,42.805,6.029,13.2996,4.60029,2470.343,2021-10-29T07:30:02Z
2021-10-29T05:31:40Z,42.805,6.029,13.3001,4.60055,2470.38,2021-10-29T07:33:05Z
2021-10-29T05:34:43Z,42.805,6.029,13.2995,4.60034,2470.357,2021-10-29T07:36:08Z
2021-10-29T05:37:46Z,42.805,6.029,13.2993,4.60031,2470.357,2021-10-29T07:39:11Z
2021-10-29T05:40:49Z,42.805,6.029,13.3000,4.60033,2470.366,2021-10-29T07:42:14Z
2021-10-29T05:43:53Z,42.805,6.029,13.2996,4.60036,2470.366,2021-10-29T07:45:17Z
2021-10-29T05:46:56Z,42.805,6.029,13.3000,4.60034,2470.343,2021-10-29T07:48:20Z
2021-10-29T05:49:59Z,42.805,6.029,13.2995,4.60032,2470.366,2021-10-29T07:51:23Z
2021-10-29T05:53:02Z,42.805,6.029,13.2997,4.60042,2470.39,2021-10-29T07:54:27Z
2021-10-29T05:56:05Z,42.805,6.029,13.2996,4.60041,2470.38,2021-10-29T07:57:30Z
2021-10-29T05:59:08Z,42.805,6.029,13.2996,4.60031,2470.366,2021-10-29T08:00:33Z
2021-10-29T06:02:11Z,42.805,6.029,13.2999,4.60039,2470.366,2021-10-29T08:03:36Z
2021-10-29T06:05:14Z,42.805,6.029,13.3001,4.60033,2470.39,2021-10-29T08:06:39Z
2021-10-29T06:08:18Z,42.805,6.029,13.3010,4.60045,2470.39,2021-10-29T08:09:42Z
2021-10-29T06:11:21Z,42.805,6.029,13.3009,4.60037,2470.366,2021-10-29T08:12:45Z
2021-10-29T06:14:24Z,42.805,6.029,13.3000,4.60041,2470.357,2021-10-29T08:15:48Z
2021-10-29T06:17:27Z,42.805,6.029,13.2996,4.60043,2470.38,2021-10-29T08:18:52Z
2021-10-29T06:20:30Z,42.805,6.029,13.3004,4.60072,2470.366,2021-10-29T08:21:55Z
2021-10-29T06:23:33Z,42.805,6.029,13.2999,4.60042,2470.366,2021-10-29T08:24:58Z
2021-10-29T06:26:36Z,42.805,6.029,13.2995,4.60031,2470.343,2021-10-29T08:28:01Z
2021-10-29T06:29:39Z,42.805,6.029,13.3000,4.60039,2470.343,2021-10-29T08:31:04Z
2021-10-29T06:32:43Z,42.805,6.029,13.3005,4.60043,2470.366,2021-10-29T08:34:07Z
2021-10-29T06:35:46Z,42.805,6.029,13.3004,4.60052,2470.38,2021-10-29T08:37:10Z
2021-10-29T06:38:49Z,42.805,6.029,13.2998,4.60031,2470.357,2021-10-29T08:40:13Z
2021-10-29T06:41:52Z,42.805,6.029,13.2996,4.60043,2470.39,2021-10-29T08:43:17Z
2021-10-29T06:44:55Z,42.805,6.029,13.2998,4.60044,2470.343,2021-10-29T08:46:20Z
2021-10-29T06:47:58Z,42.805,6.029,13.3008,4.60052,2470.38,2021-10-29T08:49:23Z
2021-10-29T06:51:01Z,42.805,6.029,13.3000,4.60044,2470.366,2021-10-29T08:52:26Z
2021-10-29T06:54:04Z,42.805,6.029,13.2998,4.60033,2470.366,2021-10-29T08:55:29Z
2021-10-29T06:57:08Z,42.805,6.029,13.3000,4.60032,2470.366,2021-10-29T08:58:32Z
2021-10-29T07:00:11Z,42.805,6.029,13.2998,4.60025,2470.357,2021-10-29T09:01:35Z
2021-10-29T07:03:14Z,42.805,6.029,13.2997,4.60032,2470.39,2021-10-29T09:04:38Z
2021-10-29T07:06:17Z,42.805,6.029,13.2993,4.60027,2470.38,2021-10-29T09:07:41Z
2021-10-29T07:09:20Z,42.805,6.029,13.3004,4.60034,2470.38,2021-10-29T09:10:45Z
2021-10-29T07:12:23Z,42.805,6.029,13.2995,4.60031,2470.343,2021-10-29T09:13:48Z
2021-10-29T07:15:26Z,42.805,6.029,13.3003,4.60031,2470.366,2021-10-29T09:16:51Z
2021-10-29T07:18:29Z,42.805,6.029,13.3002,4.60057,2470.366,2021-10-29T09:19:54Z
2021-10-29T07:21:33Z,42.805,6.029,13.2994,4.60038,2470.38,2021-10-29T09:22:57Z
2021-10-29T07:24:36Z,42.805,6.029,13.2996,4.60050,2470.366,2021-10-29T09:26:00Z
2021-10-29T07:27:39Z,42.805,6.029,13.3000,4.60031,2470.38,2021-10-29T09:29:03Z
2021-10-29T07:30:42Z,42.805,6.029,13.3002,4.60048,2470.413,2021-10-29T09:32:06Z
2021-10-29T07:33:45Z,42.805,6.029,13.3003,4.60035,2470.357,2021-10-29T09:35:10Z
2021-10-29T07:36:48Z,42.805,6.029,13.3009,4.60044,2470.366,2021-10-29T09:38:13Z
2021-10-29T07:39:51Z,42.805,6.029,13.3002,4.60035,2470.404,2021-10-29T09:41:16Z
2021-10-29T07:42:54Z,42.805,6.029,13.3006,4.60026,2470.39,2021-10-29T09:44:19Z
2021-10-29T07:45:58Z,42.805,6.029,13.3002,4.60034,2470.39,2021-10-29T09:47:22Z
2021-10-29T07:49:01Z,42.805,6.029,13.2996,4.60043,2470.404,2021-10-29T09:50:25Z
2021-10-29T07:52:04Z,42.805,6.029,13.3000,4.60045,2470.39,2021-10-29T09:53:28Z
2021-10-29T07:55:07Z,42.805,6.029,13.3000,4.60040,2470.39,2021-10-29T09:56:31Z
2021-10-29T07:58:10Z,42.805,6.029,13.3002,4.60036,2470.404,2021-10-29T09:59:35Z
2021-10-29T08:01:13Z,42.805,6.029,13.3003,4.60037,2470.38,2021-10-29T10:02:38Z
2021-10-29T08:04:16Z,42.805,6.029,13.2998,4.60033,2470.404,2021-10-29T10:05:41Z
2021-10-29T08:07:19Z,42.805,6.029,13.3004,4.60050,2470.366,2021-10-29T10:08:44Z
2021-10-29T08:10:22Z,42.805,6.029,13.3006,4.60034,2470.38,2021-10-29T10:11:47Z
2021-10-29T08:13:26Z,42.805,6.029,13.3000,4.60040,2470.38,2021-10-29T10:14:50Z
2021-10-29T08:16:29Z,42.805,6.029,13.3004,4.60040,2470.38,2021-10-29T10:17:53Z
2021-10-29T08:19:32Z,42.805,6.029,13.2991,4.60036,2470.39,2021-10-29T10:20:56Z
2021-10-29T08:22:35Z,42.805,6.029,13.3002,4.60036,2470.427,2021-10-29T10:24:00Z
2021-10-29T08:25:38Z,42.805,6.029,13.3000,4.60052,2470.357,2021-10-29T10:27:03Z
2021-10-29T08:28:41Z,42.805,6.029,13.3004,4.60034,2470.427,2021-10-29T10:30:06Z
2021-10-29T08:31:44Z,42.805,6.029,13.3009,4.60047,2470.39,2021-10-29T10:33:09Z
2021-10-29T08:34:48Z,42.805,6.029,13.2998,4.60045,2470.427,2021-10-29T10:36:12Z
2021-10-29T08:37:51Z,42.805,6.029,13.3003,4.60044,2470.427,2021-10-29T10:39:15Z
2021-10-29T08:40:54Z,42.805,6.029,13.3008,4.60044,2470.404,2021-10-29T10:42:18Z
2021-10-29T08:43:57Z,42.805,6.029,13.3000,4.60046,2470.413,2021-10-29T10:45:22Z
2021-10-29T08:47:00Z,42.805,6.029,13.3004,4.60041,2470.38,2021-10-29T10:48:25Z
2021-10-29T08:50:03Z,42.805,6.029,13.3004,4.60049,2470.427,2021-10-29T10:51:28Z
2021-10-29T08:53:06Z,42.805,6.029,13.3011,4.60046,2470.39,2021-10-29T10:54:31Z
2021-10-29T08:56:09Z,42.805,6.029,13.3003,4.60044,2470.366,2021-10-29T10:57:34Z
2021-10-29T08:59:13Z,42.805,6.029,13.3009,4.60042,2470.399,2021-10-29T11:00:37Z
2021-10-29T09:02:16Z,42.805,6.029,13.2999,4.60048,2470.404,2021-10-29T11:03:40Z
2021-10-29T09:05:19Z,42.805,6.029,13.3006,4.60036,2470.366,2021-10-29T11:06:43Z
2021-10-29T09:08:22Z,42.805,6.029,13.2994,4.60033,2470.39,2021-10-29T11:09:47Z
2021-10-29T09:11:25Z,42.805,6.029,13.2999,4.60033,2470.437,2021-10-29T11:12:50Z
2021-10-29T09:14:28Z,42.805,6.029,13.3007,4.60042,2470.39,2021-10-29T11:15:53Z
2021-10-29T09:17:31Z,42.805,6.029,13.3000,4.60029,2470.366,2021-10-29T11:18:56Z
2021-10-29T09:20:34Z,42.805,6.029,13.2998,4.60038,2470.427,2021-10-29T11:21:59Z
2021-10-29T09:23:38Z,42.805,6.029,13.3005,4.60049,2470.427,2021-10-29T11:25:02Z
2021-10-29T09:26:41Z,42.805,6.029,13.2999,4.60042,2470.413,2021-10-29T11:28:05Z
2021-10-29T09:29:44Z,42.805,6.029,13.2999,4.60040,2470.427,2021-10-29T11:31:08Z
2021-10-29T09:32:47Z,42.805,6.029,13.3003,4.60028,2470.413,2021-10-29T11:34:12Z
2021-10-29T09:35:50Z,42.805,6.029,13.3001,4.60029,2470.413,2021-10-29T11:37:15Z
2021-10-29T09:38:53Z,42.805,6.029,13.3007,4.60041,2470.413,2021-10-29T11:40:18Z
2021-10-29T09:41:56Z,42.805,6.029,13.3005,4.60053,2470.427,2021-10-29T11:43:21Z
2021-10-29T09:45:00Z,42.805,6.029,13.3008,4.60033,2470.413,2021-10-29T11:46:24Z
2021-10-29T09:48:03Z,42.805,6.029,13.3000,4.60042,2470.427,2021-10-29T11:49:27Z
2021-10-29T09:51:06Z,42.805,6.029,13.3013,4.60038,2470.45,2021-10-29T11:52:30Z
2021-10-29T09:54:09Z,42.805,6.029,13.3000,4.60052,2470.474,2021-10-29T11:55:33Z
2021-10-29T09:57:12Z,42.805,6.029,13.3009,4.60039,2470.437,2021-10-29T11:58:37Z
2021-10-29T10:00:15Z,42.805,6.029,13.3004,4.60052,2470.427,2021-10-29T12:01:40Z
2021-10-29T10:03:18Z,42.805,6.029,13.3006,4.60044,2470.437,2021-10-29T12:04:43Z
2021-10-29T10:06:21Z,42.805,6.029,13.3000,4.60046,2470.427,2021-10-29T12:07:46Z
2021-10-29T10:09:25Z,42.805,6.029,13.3003,4.60050,2470.427,2021-10-29T12:10:49Z
2021-10-29T10:12:28Z,42.805,6.029,13.3006,4.60036,2470.437,2021-10-29T12:13:52Z
2021-10-29T10:15:31Z,42.805,6.029,13.3003,4.60062,2470.427,2021-10-29T12:16:55Z
2021-10-29T10:18:34Z,42.805,6.029,13.2999,4.60032,2470.427,2021-10-29T12:19:59Z
2021-10-29T10:21:37Z,42.805,6.029,13.3002,4.60049,2470.427,2021-10-29T12:23:02Z
2021-10-29T10:24:40Z,42.805,6.029,13.3003,4.60040,2470.427,2021-10-29T12:26:05Z
2021-10-29T10:27:43Z,42.805,6.029,13.3000,4.60042,2470.427,2021-10-29T12:29:08Z
2021-10-29T10:30:46Z,42.805,6.029,13.3001,4.60046,2470.45,2021-10-29T12:32:11Z
2021-10-29T10:33:50Z,42.805,6.029,13.3009,4.60040,2470.437,2021-10-29T12:35:14Z
2021-10-29T10:36:53Z,42.805,6.029,13.2999,4.60037,2470.45,2021-10-29T12:38:17Z
2021-10-29T10:39:56Z,42.805,6.029,13.3004,4.60048,2470.45,2021-10-29T12:41:20Z
2021-10-29T10:42:59Z,42.805,6.029,13.3002,4.60041,2470.437,2021-10-29T12:44:23Z
2021-10-29T10:46:02Z,42.805,6.029,13.3005,4.60040,2470.45,2021-10-29T12:47:27Z
2021-10-29T10:49:05Z,42.805,6.029,13.3007,4.60036,2470.446,2021-10-29T12:50:30Z
2021-10-29T10:52:08Z,42.805,6.029,13.2999,4.60041,2470.437,2021-10-29T12:53:33Z
2021-10-29T10:55:11Z,42.805,6.029,13.3002,4.60041,2470.46,2021-10-29T12:56:36Z
2021-10-29T10:58:15Z,42.805,6.029,13.2999,4.60032,2470.413,2021-10-29T12:59:39Z
2021-10-29T11:01:18Z,42.805,6.029,13.3005,4.60039,2470.46,2021-10-29T13:02:42Z
2021-10-29T11:04:21Z,42.805,6.029,13.3003,4.60038,2470.45,2021-10-29T13:05:45Z
2021-10-29T11:07:24Z,42.805,6.029,13.3003,4.60034,2470.437,2021-10-29T13:08:49Z
2021-10-29T11:10:27Z,42.805,6.029,13.3002,4.60036,2470.46,2021-10-29T13:11:52Z
2021-10-29T11:13:30Z,42.805,6.029,13.2999,4.60033,2470.483,2021-10-29T13:14:55Z
2021-10-29T11:16:33Z,42.805,6.029,13.3003,4.60048,2470.46,2021-10-29T13:17:58Z
2021-10-29T11:19:36Z,42.805,6.029,13.3004,4.60043,2470.46,2021-10-29T13:21:01Z
2021-10-29T11:22:40Z,42.805,6.029,13.3006,4.60045,2470.437,2021-10-29T13:24:04Z
2021-10-29T11:25:43Z,42.805,6.029,13.3004,4.60047,2470.45,2021-10-29T13:27:07Z
2021-10-29T11:28:46Z,42.805,6.029,13.3004,4.60052,2470.46,2021-10-29T13:30:10Z
2021-10-29T11:31:49Z,42.805,6.029,13.3002,4.60045,2470.437,2021-10-29T13:33:14Z
2021-10-29T11:34:52Z,42.805,6.029,13.3004,4.60057,2470.413,2021-10-29T13:36:17Z
2021-10-29T11:37:55Z,42.805,6.029,13.3007,4.60044,2470.46,2021-10-29T13:39:20Z
2021-10-29T11:40:58Z,42.805,6.029,13.3006,4.60047,2470.474,2021-10-29T13:42:23Z
2021-10-29T11:44:01Z,42.805,6.029,13.3006,4.60049,2470.45,2021-10-29T13:45:26Z
2021-10-29T11:47:05Z,42.805,6.029,13.3006,4.60057,2470.474,2021-10-29T13:48:29Z
2021-10-29T11:50:08Z,42.805,6.029,13.3007,4.60037,2470.45,2021-10-29T13:51:32Z
2021-10-29T11:53:11Z,42.805,6.029,13.3009,4.60041,2470.45,2021-10-29T13:54:35Z
2021-10-29T11:56:14Z,42.805,6.029,13.3003,4.60045,2470.483,2021-10-29T13:57:39Z
2021-10-29T11:59:17Z,42.805,6.029,13.3006,4.60052,2470.46,2021-10-29T14:00:42Z
2021-10-29T12:02:20Z,42.805,6.029,13.3004,4.60052,2470.46,2021-10-29T14:03:45Z
2021-10-29T12:05:23Z,42.805,6.029,13.3004,4.60046,2470.46,2021-10-29T14:06:48Z
2021-10-29T12:08:26Z,42.805,6.029,13.3012,4.60050,2470.474,2021-10-29T14:09:51Z
2021-10-29T12:11:30Z,42.805,6.029,13.3006,4.60057,2470.483,2021-10-29T14:12:54Z
2021-10-29T12:14:33Z,42.805,6.029,13.3004,4.60064,2470.437,2021-10-29T14:15:57Z
2021-10-29T12:17:36Z,42.805,6.029,13.3004,4.60040,2470.46,2021-10-29T14:19:00Z
2021-10-29T12:20:39Z,42.805,6.029,13.3000,4.60039,2470.474,2021-10-29T14:22:04Z
2021-10-29T12:23:42Z,42.805,6.029,13.3002,4.60052,2470.483,2021-10-29T14:25:07Z
2021-10-29T12:26:45Z,42.805,6.029,13.3015,4.60039,2470.474,2021-10-29T14:28:10Z
2021-10-29T12:29:48Z,42.805,6.029,13.3003,4.60037,2470.483,2021-10-29T14:31:13Z
2021-10-29T12:32:51Z,42.805,6.029,13.3009,4.60038,2470.483,2021-10-29T14:34:16Z
2021-10-29T12:35:55Z,42.805,6.029,13.3004,4.60041,2470.45,2021-10-29T14:37:19Z
2021-10-29T12:38:58Z,42.805,6.029,13.3005,4.60042,2470.46,2021-10-29T14:40:22Z
2021-10-29T12:42:01Z,42.805,6.029,13.3004,4.60035,2470.46,2021-10-29T14:43:25Z
2021-10-29T12:45:04Z,42.805,6.029,13.3002,4.60050,2470.474,2021-10-29T14:46:29Z
2021-10-29T12:48:07Z,42.805,6.029,13.3007,4.60051,2470.483,2021-10-29T14:49:32Z
2021-10-29T12:51:10Z,42.805,6.029,13.3006,4.60035,2470.544,2021-10-29T14:52:35Z
2021-10-29T12:54:13Z,42.805,6.029,13.3003,4.60045,2470.52,2021-10-29T14:55:38Z
2021-10-29T12:57:17Z,42.805,6.029,13.3004,4.60033,2470.507,2021-10-29T14:58:41Z
2021-10-29T13:00:20Z,42.805,6.029,13.3011,4.60046,2470.46,2021-10-29T15:01:44Z
2021-10-29T13:03:23Z,42.805,6.029,13.3006,4.60046,2470.483,2021-10-29T15:04:47Z
2021-10-29T13:06:26Z,42.805,6.029,13.3006,4.60064,2470.46,2021-10-29T15:07:50Z
2021-10-29T13:09:29Z,42.805,6.029,13.3009,4.60079,2470.474,2021-10-29T15:10:54Z
2021-10-29T13:12:32Z,42.805,6.029,13.3006,4.60051,2470.483,2021-10-29T15:13:57Z
2021-10-29T13:15:35Z,42.805,6.029,13.3006,4.60059,2470.46,2021-10-29T15:17:00Z
2021-10-29T13:18:38Z,42.805,6.029,13.3008,4.60057,2470.497,2021-10-29T15:20:03Z
2021-10-29T13:21:41Z,42.805,6.029,13.3011,4.60052,2470.46,2021-10-29T15:23:06Z
2021-10-29T13:24:45Z,42.805,6.029,13.3003,4.60041,2470.47,2021-10-29T15:26:09Z
2021-10-29T13:27:48Z,42.805,6.029,13.3009,4.60044,2470.507,2021-10-29T15:29:12Z
2021-10-29T13:30:51Z,42.805,6.029,13.3006,4.60046,2470.497,2021-10-29T15:32:15Z
2021-10-29T13:33:54Z,42.805,6.029,13.3010,4.60072,2470.497,2021-10-29T15:35:19Z
2021-10-29T13:36:57Z,42.805,6.029,13.3004,4.60055,2470.507,2021-10-29T15:38:22Z
2021-10-29T13:40:00Z,42.805,6.029,13.3007,4.60068,2470.46,2021-10-29T15:41:25Z
2021-10-29T13:43:03Z,42.805,6.029,13.3013,4.60056,2470.52,2021-10-29T15:44:28Z
2021-10-29T13:46:07Z,42.805,6.029,13.3012,4.60052,2470.497,2021-10-29T15:47:31Z
2021-10-29T13:49:10Z,42.805,6.029,13.3003,4.60049,2470.507,2021-10-29T15:50:34Z
2021-10-29T13:52:13Z,42.805,6.029,13.3000,4.60046,2470.483,2021-10-29T15:53:37Z
2021-10-29T13:55:16Z,42.805,6.029,13.3004,4.60050,2470.46,2021-10-29T15:56:41Z
2021-10-29T13:58:19Z,42.805,6.029,13.3004,4.60035,2470.52,2021-10-29T15:59:44Z
2021-10-29T14:01:22Z,42.805,6.029,13.3011,4.60061,2470.46,2021-10-29T16:02:47Z
2021-10-29T14:04:25Z,42.805,6.029,13.3011,4.60053,2470.47,2021-10-29T16:05:50Z
2021-10-29T14:07:28Z,42.805,6.029,13.3012,4.60046,2470.483,2021-10-29T16:08:53Z
2021-10-29T14:10:32Z,42.805,6.029,13.3011,4.60057,2470.507,2021-10-29T16:11:56Z
2021-10-29T14:13:35Z,42.805,6.029,13.3007,4.60046,2470.497,2021-10-29T16:14:59Z
2021-10-29T14:16:38Z,42.805,6.029,13.3009,4.60048,2470.483,2021-10-29T16:18:02Z
2021-10-29T14:19:41Z,42.805,6.029,13.3011,4.60054,2470.483,2021-10-29T16:21:06Z
2021-10-29T14:22:44Z,42.805,6.029,13.3002,4.60039,2470.52,2021-10-29T16:24:09Z
2021-10-29T14:25:47Z,42.805,6.029,13.3006,4.60063,2470.507,2021-10-29T16:27:12Z
2021-10-29T14:28:50Z,42.805,6.029,13.3009,4.60075,2470.53,2021-10-29T16:30:15Z
2021-10-29T14:31:53Z,42.805,6.029,13.3011,4.60050,2470.483,2021-10-29T16:33:18Z
2021-10-29T14:34:57Z,42.805,6.029,13.3015,4.60040,2470.46,2021-10-29T16:36:21Z
2021-10-29T14:38:00Z,42.805,6.029,13.3001,4.60041,2470.483,2021-10-29T16:39:24Z
2021-10-29T14:41:03Z,42.805,6.029,13.3004,4.60043,2470.507,2021-10-29T16:42:27Z
2021-10-29T14:44:06Z,42.805,6.029,13.3005,4.60044,2470.52,2021-10-29T16:45:31Z
2021-10-29T14:47:09Z,42.805,6.029,13.3010,4.60039,2470.483,2021-10-29T16:48:34Z
2021-10-29T14:50:12Z,42.805,6.029,13.3001,4.60040,2470.52,2021-10-29T16:51:37Z
2021-10-29T14:53:15Z,42.805,6.029,13.3007,4.60033,2470.52,2021-10-29T16:54:40Z
2021-10-29T14:56:18Z,42.805,6.029,13.3011,4.60043,2470.497,2021-10-29T16:57:43Z
2021-10-29T14:59:22Z,42.805,6.029,13.3011,4.60077,2470.507,2021-10-29T17:00:46Z
2021-10-29T15:02:25Z,42.805,6.029,13.3007,4.60062,2470.483,2021-10-29T17:03:49Z